Tracking 35237 objects as of 4-Sep-2026
HD Live streaming from Space Station
objects crossing your sky now

ONEWEB-0190

Track ONEWEB-0190 now!
10-day predictions
ONEWEB-0190 is classified as:


NORAD ID: 48796
Int'l Code: 2021-045AF
Launch date: May 28, 2021
Source: United Kingdom (UK)
Launch site: VOSTOCHNY COSMODROME (VOSTO)
Your satellite tracking list
Your tracking list is empty




NASA's NSSDC Master Catalog

Two Line Element Set (TLE):
1 48796U 21045AF  26247.41014153 -.00000055  00000-0 -17933-3 0  9994
2 48796  87.8969 243.4038 0002559  76.8331 283.3084 13.15548240254783
Source of the keplerian elements: AFSPC